RH
12 12 12 11 11 11 11 11 11 11 12 12 12 12 11 11 10 9 8 8 9 10 11 12 11 9 6 5 4 4 3 5 8 12 15 18 20 24 28 28 29 32 30 29 30 32 33 32 35 36 39 45 49 53 57 63 68 74 79 79 82 87 86 81 85 91 88 87 88 89 89 86 81 72 64 62 59 56 53 47 44 45 45 45 45 46 49 48
14 14 14 13 12 12 11 11 10 10 11 11 12 12 12 11 11 10 9 8 8 9 10 11 12 11 9 7 5 4 4 4 6 10 13 16 18 21 26 28 30 32 30 28 29 30 30 30 33 35 39 44 46 50 54 60 68 75 77 77 80 84 82 77 83 88 85 86 87 88 89 86 80 71 65 63 61 59 55 47 42 45 46 45 45 47 52 50
16 16 15 14 14 13 12 11 10 10 10 11 11 12 12 12 12 11 10 9 8 8 8 9 11 12 11 9 7 6 4 4 5 8 11 14 16 18 23 26 29 34 31 28 28 27 26 27 30 33 39 44 46 51 57 61 68 74 73 75 78 80 80 76 81 86 83 85 86 88 89 86 81 73 67 64 63 64 57 45 43 46 46 47 49 50 54 52
16 16 15 15 14 14 13 12 11 10 10 10 10 10 11 11 11 12 11 10 8 8 7 8 9 11 12 11 9 7 5 5 4 6 9 13 15 16 19 22 27 33 33 30 29 27 26 27 29 33 40 43 47 54 59 63 67 71 71 72 74 76 81 77 78 83 83 85 85 86 89 86 83 76 70 65 65 66 60 47 42 46 45 48 52 51 54 53
16 16 16 16 15 14 14 13 12 11 10 10 9 9 10 11 11 12 12 11 9 8 7 7 9 9 11 12 11 9 7 6 6 6 9 12 14 14 16 18 22 30 33 31 29 28 28 28 30 36 41 43 49 55 58 62 65 68 68 68 69 74 82 78 75 81 84 85 83 84 88 87 83 78 72 66 64 62 60 51 43 45 45 46 52 52 53 53
16 16 16 16 16 15 14 13 13 12 11 10 9 9 9 10 10 11 12 11 10 9 8 7 8 8 10 11 12 12 9 8 9 9 8 11 14 14 14 15 19 25 30 30 30 29 29 28 32 39 41 44 51 55 56 60 63 66 63 63 65 70 79 79 76 80 84 85 85 85 87 86 81 78 73 68 66 61 59 54 49 49 47 45 49 52 53 54
16 16 16 16 16 16 15 14 13 12 11 10 9 9 9 9 9 10 11 11 10 9 8 7 7 8 9 11 11 12 12 10 11 10 8 9 12 14 14 14 16 21 24 26 28 29 28 28 34 40 41 46 52 54 55 58 61 63 61 61 64 68 76 78 76 79 83 87 88 86 87 85 82 79 75 71 68 64 59 56 54 53 49 48 49 51 53 54
16 16 16 16 16 16 15 14 13 12 12 10 9 8 8 9 9 10 11 11 10 9 9 8 8 7 8 10 11 12 12 11 12 13 9 7 9 11 14 14 16 19 21 22 24 26 27 27 32 38 42 49 52 51 52 54 55 57 56 58 64 70 75 77 76 78 83 88 88 87 88 86 83 80 78 76 71 67 62 57 56 53 50 49 50 51 51 51
17 16 16 16 15 14 14 14 13 12 12 11 9 8 8 8 8 10 10 10 10 9 9 8 8 8 8 9 11 13 12 12 14 15 11 8 7 7 10 13 15 18 19 20 20 21 23 25 30 36 43 50 51 50 50 50 50 48 48 56 64 70 74 77 79 79 83 88 88 88 89 88 85 81 81 79 74 70 66 59 55 53 51 49 49 51 50 50
17 16 16 16 14 14 13 12 12 12 12 11 10 9 8 8 9 10 10 9 9 9 9 9 8 9 9 8 10 13 12 13 15 16 15 12 9 6 6 9 12 15 17 18 19 18 19 22 29 39 45 49 49 47 46 46 45 41 40 52 64 69 73 77 79 80 83 87 88 88 89 87 85 84 84 81 76 73 71 66 56 53 53 49 49 50 49 51
17 16 16 15 14 14 12 12 12 12 12 12 11 10 9 9 10 10 10 9 9 9 9 9 9 10 10 10 10 11 13 17 16 16 18 16 12 9 7 7 8 12 13 16 18 17 18 19 28 41 46 47 46 42 41 41 39 36 40 52 61 68 76 77 78 80 82 85 86 88 89 87 84 87 88 83 79 77 77 74 59 52 54 51 50 50 50 52
17 16 15 14 14 13 12 12 12 12 13 12 12 10 10 11 10 10 9 9 9 9 9 9 10 10 10 10 11 9 14 19 18 18 19 17 14 10 9 8 6 8 9 12 16 16 19 20 26 39 44 45 45 39 37 36 35 38 46 55 62 72 77 74 77 79 79 84 84 83 87 87 85 87 89 85 82 80 80 77 63 54 54 53 51 50 51 52
16 15 14 13 13 13 12 12 12 13 13 13 12 12 12 11 11 10 10 10 10 9 9 9 9 10 10 10 10 9 13 20 19 19 20 18 16 11 10 9 7 7 8 10 14 15 19 21 25 35 41 42 43 39 35 34 37 44 49 56 65 75 77 72 75 77 78 83 81 79 85 86 84 86 88 87 86 82 80 77 67 57 54 53 52 50 51 51
15 14 13 13 13 14 13 12 13 13 13 14 13 13 13 12 12 12 12 11 10 10 9 9 9 10 10 10 9 10 13 19 20 20 22 21 18 14 11 10 9 9 8 10 12 12 18 25 30 35 37 39 40 39 36 33 38 48 53 57 63 71 77 74 74 74 76 80 78 78 83 83 80 83 86 88 87 83 81 79 71 61 54 53 51 49 49 49
14 13 13 13 14 15 14 14 14 14 14 15 14 15 14 14 14 13 13 12 12 11 9 10 9 11 13 11 10 11 13 20 21 20 21 21 20 17 12 10 10 9 10 11 11 11 17 25 30 34 35 35 37 36 35 34 38 50 59 63 62 67 76 78 74 73 76 78 77 78 81 79 77 80 83 86 88 84 83 83 76 64 56 53 51 49 49 48
13 13 14 14 14 15 16 16 16 15 16 16 16 16 16 16 16 15 15 14 14 13 10 11 10 11 14 12 11 12 15 24 25 21 21 20 20 19 14 11 10 10 11 12 13 14 19 24 26 31 33 33 34 35 34 34 41 51 59 64 64 67 76 80 77 74 77 79 76 76 78 79 77 77 80 84 87 85 85 86 79 67 57 54 53 51 50 49
13 14 15 14 15 17 18 17 17 17 16 16 16 16 16 17 17 18 18 16 16 14 12 12 11 10 11 10 12 15 19 27 28 26 25 23 21 18 15 13 10 10 11 12 13 16 23 25 26 29 30 31 32 34 32 31 41 50 55 62 63 64 71 78 80 78 78 78 74 71 74 77 77 76 80 83 85 86 86 87 81 69 58 54 54 53 52 50
14 15 16 16 17 19 19 18 16 16 15 14 14 14 15 15 16 18 18 16 16 16 15 13 12 13 11 9 13 16 21 27 29 28 27 26 24 19 15 14 11 9 11 13 13 19 27 27 27 28 28 29 29 30 30 28 37 45 49 60 63 61 64 72 80 80 78 79 75 72 72 73 74 75 79 83 86 86 87 88 83 71 60 56 55 54 52 51
15 16 18 18 20 20 19 16 14 13 12 13 12 12 14 14 14 17 17 16 17 16 15 12 12 14 12 11 14 17 21 26 28 28 26 25 25 21 16 14 12 9 11 14 16 23 30 28 27 27 26 27 25 25 27 26 33 38 41 53 60 59 60 67 78 80 77 79 77 74 75 72 70 73 76 80 85 87 89 90 87 76 64 58 57 55 53 53
17 19 20 21 22 22 19 15 13 13 12 12 11 11 13 13 14 17 17 15 14 13 12 12 13 16 14 14 16 16 19 23 25 27 26 24 23 20 16 15 13 12 13 16 20 25 30 31 29 26 25 25 25 25 27 27 29 31 34 43 50 55 59 63 73 78 74 77 76 74 78 76 71 72 74 79 84 89 92 92 90 82 70 61 58 56 55 54
21 22 22 22 23 21 18 16 15 14 13 12 11 12 12 13 15 17 17 14 12 13 15 15 17 18 15 15 15 16 18 20 24 27 27 25 23 19 16 16 14 14 17 19 23 26 30 32 27 25 24 24 28 29 29 28 25 27 31 34 39 49 56 60 68 73 71 75 77 75 80 81 74 71 75 82 86 88 90 91 91 87 78 68 61 57 55 55
23 24 23 22 21 19 16 16 17 16 14 12 12 13 14 15 16 17 18 17 15 17 19 18 19 19 17 16 15 15 17 19 23 26 27 27 26 22 18 16 15 16 21 24 28 31 32 29 24 23 24 24 27 30 30 28 25 27 28 27 31 40 49 57 64 68 69 73 78 79 82 83 78 74 77 83 88 89 89 90 92 91 85 74 65 59 55 55
25 25 23 20 18 17 16 16 16 15 12 12 13 15 18 19 19 20 20 18 19 20 19 20 21 20 20 20 18 17 18 19 23 26 26 28 28 25 20 16 16 18 24 30 33 34 33 27 23 23 24 23 24 29 31 28 25 25 24 25 28 33 43 55 61 64 66 69 74 78 80 82 82 82 81 81 86 92 93 93 93 93 90 80 71 65 59 55
26 26 22 18 15 14 15 14 14 15 14 16 18 20 23 23 23 23 21 20 21 21 20 23 26 25 24 24 23 21 21 20 23 25 26 28 28 27 22 16 16 20 28 34 34 32 30 25 23 23 23 23 25 29 31 28 26 24 22 24 27 33 44 53 58 60 63 68 73 77 80 81 82 85 84 80 84 90 93 96 95 93 91 86 78 73 65 57
27 25 20 15 12 12 14 13 14 16 19 22 23 24 26 27 26 23 23 23 23 22 21 23 27 28 26 26 26 25 24 22 24 27 27 27 27 26 22 16 17 24 32 36 34 30 28 24 22 23 23 22 24 29 31 28 26 24 22 24 30 41 48 51 56 61 66 73 74 74 79 82 82 83 81 79 83 86 89 94 95 93 93 89 83 78 70 62
27 24 19 14 12 12 12 13 15 19 23 26 26 26 27 29 28 25 27 27 23 23 24 22 22 25 24 23 25 26 29 28 26 27 28 28 28 26 23 19 19 28 34 35 33 30 26 24 22 22 23 22 23 27 30 27 25 24 23 24 33 47 51 51 56 62 67 71 69 68 73 80 82 81 75 74 79 81 85 91 92 94 95 91 85 79 73 67
25 22 17 14 12 12 13 13 16 20 24 27 28 28 29 32 32 31 34 31 24 24 24 20 20 23 24 24 25 27 32 33 28 28 29 29 29 27 25 23 21 28 33 31 30 28 24 23 22 21 22 22 21 23 26 26 24 24 23 27 37 46 51 55 58 61 61 62 68 70 70 77 81 77 71 72 76 78 83 89 90 93 94 91 87 83 78 74
22 19 15 14 12 12 13 14 16 19 22 27 30 30 33 36 36 37 40 33 25 23 21 17 19 21 22 24 25 25 29 33 31 31 32 31 31 29 28 27 23 26 30 30 30 27 23 22 22 21 21 21 20 19 21 22 23 24 24 29 38 41 45 52 56 58 57 59 72 75 70 75 81 76 71 72 74 75 78 82 84 88 90 88 87 86 83 80
20 16 14 13 12 12 14 15 17 20 24 29 31 32 35 37 36 39 41 32 25 25 24 21 20 21 20 20 22 23 26 30 31 33 34 33 33 32 31 30 26 25 26 28 30 27 23 20 20 20 20 20 19 18 18 19 21 23 23 28 36 39 40 43 48 54 57 60 70 74 71 75 81 77 73 74 72 69 71 75 79 83 86 86 86 87 87 83
17 14 12 13 12 12 14 16 17 22 27 30 32 32 33 35 36 39 39 32 27 26 25 24 23 21 20 18 19 22 27 29 30 33 35 34 35 34 33 32 29 27 26 27 28 26 23 19 18 18 18 18 18 18 17 17 19 20 23 29 36 41 40 41 49 54 58 62 67 73 73 74 79 76 71 72 68 63 65 71 74 77 80 83 85 88 88 85
16 13 12 12 12 12 15 16 18 24 28 30 32 33 32 35 40 42 36 30 29 28 24 24 24 21 20 19 20 23 27 28 29 34 35 34 36 35 34 34 32 30 30 29 28 27 22 20 18 17 16 16 17 18 17 16 17 18 23 29 36 46 49 50 56 57 58 63 67 73 76 76 79 76 70 69 67 62 64 68 70 73 76 80 83 86 87 86
15 12 12 11 11 13 15 17 21 25 27 28 30 31 34 35 37 39 36 31 30 29 25 23 23 22 22 23 25 27 29 28 30 36 36 36 38 39 39 39 35 33 33 32 30 28 23 20 19 17 16 16 16 18 17 16 16 17 23 27 34 52 60 58 60 59 58 60 63 70 78 81 80 74 70 69 67 65 64 65 69 70 72 76 80 83 85 86
15 13 12 11 11 14 17 19 23 25 27 28 27 29 34 34 33 34 35 33 31 29 25 23 23 23 25 27 28 31 33 31 32 37 38 37 41 41 40 40 36 33 34 34 32 29 24 21 19 17 17 16 16 18 18 17 16 17 21 23 30 49 62 62 60 59 58 57 61 69 75 79 75 70 71 68 65 65 65 65 68 69 71 73 76 80 84 87
16 14 12 12 13 17 20 22 24 26 28 27 27 30 32 31 32 32 33 33 31 29 25 23 24 26 29 30 34 37 37 37 39 40 40 40 43 44 42 39 35 33 35 36 34 32 28 25 21 19 19 17 15 17 18 18 16 17 21 22 26 36 49 56 58 57 56 56 63 69 72 75 73 68 69 67 65 64 64 65 67 68 70 71 74 77 81 86
17 14 12 13 15 19 23 25 25 27 28 26 29 33 32 31 32 30 29 32 31 29 26 25 28 32 33 35 40 41 39 42 46 46 44 42 42 44 42 38 35 35 36 37 37 34 31 28 25 21 20 17 16 17 18 18 16 17 22 24 24 26 34 46 52 53 52 56 69 73 70 72 72 68 68 68 68 66 64 65 65 66 66 66 71 74 76 82
16 13 13 16 18 21 25 26 26 27 27 28 30 32 30 30 30 28 27 30 31 30 28 28 32 35 37 38 43 42 37 39 44 47 47 44 41 42 40 36 35 36 36 37 38 35 32 30 28 24 21 19 18 18 19 18 18 21 23 25 25 27 34 42 47 52 51 54 68 75 73 74 73 70 68 68 70 69 66 65 65 65 65 64 67 71 72 78
17 15 17 19 21 24 26 26 27 28 28 30 31 31 31 29 28 27 27 28 31 32 33 34 34 35 35 38 41 42 38 38 41 44 45 43 42 41 40 38 37 36 37 37 36 34 32 32 30 27 23 21 19 19 20 20 20 22 24 26 29 31 35 39 49 61 61 60 68 74 76 78 77 74 69 67 70 69 67 67 69 69 66 65 67 71 74 76
19 19 19 20 22 23 25 25 26 27 30 33 33 32 31 29 27 26 25 26 31 34 36 36 36 35 35 37 40 40 38 38 41 43 42 41 42 42 42 43 40 36 37 37 35 33 33 33 33 29 26 24 22 21 23 23 21 23 26 30 34 37 36 37 48 60 64 68 73 73 74 76 76 74 69 68 69 67 65 66 70 71 69 68 69 72 77 78
23 22 21 21 22 23 24 24 25 27 31 34 32 30 28 27 27 27 25 27 32 36 36 36 36 36 36 36 38 38 37 37 41 44 42 41 43 41 41 46 44 38 37 37 36 35 34 34 35 31 27 26 25 24 27 26 22 23 30 34 37 40 40 39 44 52 59 69 73 72 73 74 73 73 70 68 67 64 64 65 68 71 70 69 70 72 77 80
25 23 22 23 24 24 25 24 25 28 29 28 29 29 28 26 26 27 26 27 31 34 34 34 36 37 37 36 36 37 39 40 41 43 43 42 42 40 39 45 48 44 40 39 38 38 37 36 36 34 30 29 29 26 27 29 25 24 31 37 38 38 40 41 44 49 59 69 71 69 71 72 71 72 69 68 66 63 64 65 67 70 70 70 71 72 75 80
25 23 22 24 25 25 25 25 25 27 26 25 26 27 26 25 25 26 28 28 29 31 31 32 36 38 38 37 35 37 40 42 42 42 42 41 41 40 39 43 48 47 43 42 42 41 40 41 40 37 32 32 32 28 27 29 27 25 29 34 38 38 39 42 46 50 59 66 65 62 64 64 66 68 67 67 67 66 66 67 69 70 71 72 72 72 75 77
25 25 24 24 25 25 25 26 27 26 24 22 23 22 21 24 24 24 26 28 28 29 31 33 35 38 39 38 37 38 41 42 42 41 41 41 41 40 40 41 47 49 46 44 45 45 47 48 47 43 36 35 36 34 31 28 26 26 26 31 37 40 41 45 47 51 60 64 62 60 61 61 61 64 66 65 65 66 67 67 68 69 71 72 73 73 75 77
26 28 25 23 25 25 25 29 29 26 24 21 20 19 18 22 23 21 23 27 27 30 34 35 36 38 39 38 38 41 41 41 42 41 41 42 41 40 40 41 44 50 50 46 45 48 52 54 53 51 45 41 42 41 36 30 26 26 26 29 35 37 40 45 48 54 61 64 64 63 63 64 62 63 65 64 62 64 65 64 65 66 67 70 72 74 75 77
28 28 25 21 22 24 26 28 26 27 28 23 18 19 17 19 21 19 20 23 26 29 34 36 37 39 40 40 40 41 41 40 40 40 40 41 41 39 40 40 42 48 52 50 46 48 54 57 58 56 49 47 50 50 43 34 29 28 28 28 32 38 43 45 49 56 60 63 64 60 60 65 67 66 68 67 64 64 66 65 64 65 66 67 72 75 76 76
28 27 24 19 19 22 24 24 22 25 29 24 19 19 19 18 19 19 18 19 22 26 30 34 37 39 42 45 44 44 44 42 41 41 41 41 41 40 39 39 41 45 51 52 50 50 56 61 63 61 56 55 57 55 49 40 33 29 27 27 30 38 43 46 51 56 58 60 62 58 59 65 69 71 71 69 66 66 67 66 65 65 65 66 70 75 77 77
27 28 27 23 19 20 22 21 20 22 25 24 21 20 21 20 19 18 17 17 20 23 27 31 34 38 43 46 47 49 51 48 45 45 44 43 43 40 39 40 41 42 46 49 49 53 59 61 62 63 60 56 55 55 52 46 37 31 28 28 31 37 43 47 51 52 54 60 63 62 61 64 67 71 71 69 68 67 67 66 64 63 64 65 68 70 72 74
28 31 33 30 23 21 23 22 23 23 22 24 22 20 21 21 20 19 17 17 19 20 23 27 30 35 40 43 46 51 54 53 48 45 44 44 45 43 39 40 40 40 42 44 48 56 62 61 61 62 59 53 51 53 51 46 41 39 36 33 34 39 42 44 47 47 50 57 62 63 63 63 65 67 67 67 68 68 67 66 63 61 62 65 67 67 68 69
29 32 35 34 27 25 26 26 27 26 24 25 24 21 21 21 20 20 17 17 18 19 22 25 26 30 36 41 46 49 54 54 48 45 44 44 47 46 41 40 41 38 39 42 47 56 62 60 59 61 60 56 52 49 47 45 45 46 43 37 36 40 42 44 48 50 50 52 57 62 64 65 66 66 66 67 68 67 67 65 62 61 61 65 70 71 71 69
31 35 37 35 30 29 31 30 28 27 27 31 29 22 20 19 19 19 17 18 19 19 22 25 26 28 32 40 46 47 50 52 47 45 46 45 47 47 42 40 39 36 37 41 45 53 58 59 58 59 60 60 56 51 48 46 46 49 48 42 40 42 42 44 49 53 53 53 56 60 63 66 67 68 69 70 69 67 66 64 63 62 64 69 72 72 71 73
34 39 40 37 33 32 34 33 29 26 28 30 26 21 20 20 20 19 18 19 21 21 22 23 26 29 31 36 43 43 46 50 48 46 49 50 50 46 41 39 37 36 37 39 42 47 51 56 61 61 58 58 59 56 52 49 47 48 48 47 48 49 48 47 49 52 56 58 59 59 62 66 68 70 72 72 69 68 66 67 66 63 65 67 66 65 68 72
36 39 40 40 37 34 35 33 30 29 28 26 25 24 25 23 21 20 19 20 23 24 23 23 24 26 26 29 34 37 41 47 47 46 49 51 49 45 42 39 37 36 37 37 40 45 48 53 60 61 56 55 56 57 57 53 50 48 45 45 50 53 55 57 54 51 53 56 57 59 62 66 67 69 73 73 70 68 67 68 66 63 64 62 57 58 63 65
35 37 40 41 37 34 38 36 31 29 26 25 28 29 29 25 21 20 21 22 23 23 23 23 23 23 22 21 25 30 36 42 44 43 45 47 46 44 43 40 38 38 37 36 38 42 47 50 53 57 56 54 56 59 60 59 60 60 54 48 49 52 55 60 57 51 49 51 53 58 62 65 66 69 73 73 70 70 70 69 66 63 61 56 51 52 56 58